Medford, WI

9:44 PM CST on December 10, 2019 (GMT -0600)
Taylor County

Weather History for KMDZ - November, 2019

Change the Weather History Date:

Monday, November 18, 2019

  Actual Average Record
Temperature  
Mean Temperature 28 °F -  
Max Temperature 29 °F 39 °F 65 °F (1953)
Min Temperature 26 °F 24 °F 2 °F (1959)
Degree Days  
Heating Degree Days 38    
Moisture  
Dew Point 26 °F    
Average Humidity 94    
Maximum Humidity 97    
Minimum Humidity 90    
Precipitation  
Precipitation 0.00 in - - ()
Sea Level Pressure  
Sea Level Pressure 29.73 in    
Wind  
Wind Speed 3 mph (WSW)    
Max Wind Speed 7 mph    
Max Gust Speed -    
Visibility 9 miles    
Events      
Averages and records for this station are not official NWS values.
T = Trace of Precipitation, MM = Missing Value Source: NWS Daily Summary

Daily Weather History Graph

Daily Weather History Graph

Search for Another Location

Airport or City:

Astronomy

Nov. 18, 2019 Rise Set
Actual Time 7:02 AM CST 4:29 PM CST
Civil Twilight 6:30 AM CST 5:01 PM CST
Nautical Twilight 5:54 AM CST 5:37 PM CST
Astronomical Twilight 5:20 AM CST 6:12 PM CST
Moon 10:13 PM CST (11/18) 12:35 PM CST (11/18)
Length of Visible Light 10h 30m
Length of Day
9h 26m
Waning Gibbous, 63% of the Moon is Illuminated
Nov 18
Waning Gibbous
Nov 19
Last Quarter
Nov 26
New
Dec 4
First Quarter
Dec 11
Full

Hourly Weather History & Observations

Time (CST) Temp. Windchill Dew Point Humidity Pressure Visibility Wind Dir Wind Speed Gust Speed Precip Events Conditions
12:35 AM 29.8 °F 26.3 °F 28.4 °F 94% 29.77 in 10.0 mi WNW 3.5 mph - N/A   Overcast
12:55 AM 29.7 °F 26.1 °F 28.8 °F 96% 29.77 in 10.0 mi WNW 3.5 mph - N/A   Overcast
1:15 AM 29.7 °F 26.1 °F 28.4 °F 95% 29.76 in 10.0 mi WNW 3.5 mph - N/A   Overcast
1:35 AM 29.7 °F 22.8 °F 28.0 °F 94% 29.76 in 10.0 mi West 6.9 mph - N/A   Overcast
1:55 AM 29.7 °F 22.8 °F 27.1 °F 90% 29.76 in 10.0 mi WNW 6.9 mph - N/A   Overcast
2:15 AM 29.3 °F 24.3 °F 27.5 °F 93% 29.76 in 10.0 mi WNW 4.6 mph - N/A   Overcast
2:35 AM 29.1 °F 24.1 °F 27.3 °F 93% 29.76 in 10.0 mi NW 4.6 mph - N/A   Overcast
3:15 AM 28.9 °F 23.9 °F 27.0 °F 92% 29.75 in 10.0 mi NW 4.6 mph - N/A   Overcast
3:35 AM 28.8 °F 25.0 °F 26.8 °F 92% 29.75 in 10.0 mi WNW 3.5 mph - N/A   Overcast
3:55 AM 28.4 °F 23.3 °F 26.6 °F 93% 29.75 in 10.0 mi West 4.6 mph - N/A   Overcast
4:15 AM 28.4 °F 23.3 °F 26.4 °F 92% 29.75 in 10.0 mi West 4.6 mph - N/A   Overcast
4:35 AM 28.2 °F 23.1 °F 26.2 °F 92% 29.75 in 10.0 mi West 4.6 mph - N/A   Overcast
4:55 AM 28.2 °F 24.4 °F 26.6 °F 94% 29.75 in 10.0 mi West 3.5 mph - N/A   Overcast
5:15 AM 27.9 °F 24.0 °F 26.4 °F 94% 29.75 in 10.0 mi NW 3.5 mph - N/A   Overcast
5:35 AM 27.9 °F 21.5 °F 26.4 °F 94% 29.75 in 10.0 mi NW 5.8 mph - N/A   Overcast
5:55 AM 27.5 °F 22.2 °F 26.1 °F 94% 29.75 in 10.0 mi NNW 4.6 mph - N/A   Overcast
6:15 AM 27.5 °F 23.6 °F 25.7 °F 93% 29.76 in 10.0 mi West 3.5 mph - N/A   Overcast
6:35 AM 27.5 °F - 25.7 °F 93% 29.76 in 10.0 mi Calm Calm - N/A   Overcast
7:35 AM 27.5 °F 22.2 °F 25.7 °F 93% 29.76 in 10.0 mi West 4.6 mph - N/A   Overcast
7:55 AM 27.3 °F 23.4 °F 25.7 °F 94% 29.76 in 10.0 mi West 3.5 mph - N/A   Overcast
8:15 AM 27.3 °F 23.4 °F 25.7 °F 94% 29.77 in 10.0 mi West 3.5 mph - N/A   Overcast
8:35 AM 27.1 °F 20.7 °F 26.1 °F 96% 29.76 in 4.0 mi West 5.8 mph - N/A   Overcast
8:55 AM 27.1 °F 23.2 °F 26.2 °F 96% 29.76 in 4.0 mi West 3.5 mph - N/A   Overcast
9:15 AM 27.1 °F 23.2 °F 25.7 °F 94% 29.76 in 7.0 mi West 3.5 mph - N/A   Overcast
9:35 AM 27.1 °F 20.7 °F 26.1 °F 96% 29.76 in 5.0 mi West 5.8 mph - N/A   Overcast
9:55 AM 26.8 °F 21.4 °F 25.3 °F 94% 29.75 in 10.0 mi West 4.6 mph - N/A   Overcast
10:15 AM 27.0 °F 23.0 °F 25.3 °F 94% 29.75 in 10.0 mi WSW 3.5 mph - N/A   Overcast
10:35 AM 27.0 °F - 25.3 °F 94% 29.75 in 10.0 mi Calm Calm - N/A   Overcast
10:55 AM 27.1 °F - 25.5 °F 94% 29.74 in 10.0 mi Calm Calm - N/A   Overcast
11:15 AM 27.1 °F - 25.5 °F 94% 29.73 in 10.0 mi Calm Calm - N/A   Overcast
11:35 AM 27.0 °F 20.5 °F 25.5 °F 94% 29.72 in 10.0 mi SW 5.8 mph - N/A   Overcast
11:55 AM 26.8 °F 22.8 °F 25.2 °F 94% 29.71 in 10.0 mi West 3.5 mph - N/A   Overcast
12:15 PM 27.0 °F 23.0 °F 25.3 °F 94% 29.71 in 10.0 mi West 3.5 mph - N/A   Overcast
12:35 PM 27.0 °F 21.6 °F 25.2 °F 93% 29.71 in 10.0 mi SW 4.6 mph - N/A   Overcast
12:55 PM 27.1 °F 23.2 °F 25.2 °F 92% 29.70 in 10.0 mi WNW 3.5 mph - N/A   Overcast
1:15 PM 27.1 °F - 24.8 °F 91% 29.71 in 10.0 mi Calm Calm - N/A   Overcast
1:55 PM 27.1 °F - 25.0 °F 92% 29.69 in 10.0 mi Calm Calm - N/A   Overcast
2:15 PM 27.3 °F 23.4 °F 24.8 °F 90% 29.69 in 10.0 mi SSW 3.5 mph - N/A   Overcast
2:35 PM 27.0 °F - 24.8 °F 92% 29.69 in 10.0 mi Calm Calm - N/A   Overcast
2:55 PM 27.0 °F - 25.0 °F 92% 29.69 in 10.0 mi Calm Calm - N/A   Overcast
3:35 PM 27.1 °F - 25.5 °F 94% 29.69 in 10.0 mi Calm Calm - N/A   Overcast
3:55 PM 27.0 °F - 25.7 °F 95% 29.69 in 10.0 mi Calm Calm - N/A   Overcast
4:35 PM 26.6 °F - 25.7 °F 96% 29.70 in 10.0 mi Calm Calm - N/A   Overcast
4:55 PM 26.8 °F - 25.5 °F 95% 29.70 in 10.0 mi Calm Calm - N/A   Overcast
5:15 PM 26.6 °F - 25.5 °F 96% 29.71 in 10.0 mi Calm Calm - N/A   Overcast
5:35 PM 27.0 °F 23.0 °F 25.7 °F 95% 29.70 in 10.0 mi South 3.5 mph - N/A   Overcast
5:55 PM 26.6 °F - 25.7 °F 96% 29.70 in 10.0 mi Calm Calm - N/A   Overcast
6:15 PM 26.6 °F - 25.3 °F 95% 29.70 in 10.0 mi Calm Calm - N/A   Overcast
6:35 PM 26.6 °F - 25.7 °F 96% 29.71 in 10.0 mi Calm Calm - N/A   Overcast
6:55 PM 26.6 °F - 25.7 °F 96% 29.70 in 7.0 mi Calm Calm - N/A   Overcast
7:15 PM 26.6 °F - 25.7 °F 96% 29.70 in 7.0 mi Calm Calm - N/A   Overcast
7:35 PM 26.6 °F 22.6 °F 25.5 °F 96% 29.70 in 7.0 mi South 3.5 mph - N/A   Overcast
7:55 PM 26.6 °F 22.6 °F 25.5 °F 96% 29.70 in 7.0 mi SE 3.5 mph - N/A   Overcast
8:15 PM 26.4 °F 22.4 °F 25.5 °F 96% 29.69 in 7.0 mi South 3.5 mph - N/A   Overcast
8:35 PM 26.4 °F 22.4 °F 25.5 °F 96% 29.69 in 7.0 mi SSE 3.5 mph - N/A   Overcast
8:55 PM 26.2 °F - 25.3 °F 96% 29.69 in 7.0 mi Calm Calm - N/A   Overcast
9:15 PM 26.6 °F 19.1 °F 25.5 °F 96% 29.70 in 7.0 mi SSW 6.9 mph - N/A   Overcast
9:35 PM 26.6 °F 21.2 °F 25.5 °F 96% 29.70 in 7.0 mi South 4.6 mph - N/A   Overcast
9:55 PM 26.4 °F 19.8 °F 25.5 °F 96% 29.69 in 7.0 mi South 5.8 mph - N/A   Overcast
10:15 PM 26.2 °F 20.7 °F 25.3 °F 96% 29.70 in 7.0 mi South 4.6 mph - N/A   Overcast
10:35 PM 26.2 °F - 25.5 °F 97% 29.70 in 5.0 mi Calm Calm - N/A   Overcast
10:55 PM 26.2 °F - 25.5 °F 97% 29.70 in 5.0 mi Calm Calm - N/A   Overcast
11:15 PM 26.2 °F - 25.5 °F 97% 29.70 in 5.0 mi Calm Calm - N/A   Overcast
11:35 PM 26.2 °F 22.1 °F 25.5 °F 97% 29.70 in 5.0 mi SW 3.5 mph - N/A   Overcast
11:55 PM 26.1 °F - 25.3 °F 97% 29.70 in 5.0 mi Calm Calm - N/A   Overcast